Find GFO

NORAD ID: 25157 Int'l Des: 1998-007 Owner: USN Country: US operational
LEOCIRCULARRETROGRADE

当前视图

正在加载3D地球...

关于 GFO

正在加载描述...

即将过境

Passes for default location (London). Set your location on the main map for personalized predictions.

高度历史

Loading altitude history...

两行轨道根数

1 25157U 98007A 26149.53227706 .00157382 00000-0 78688-3 0 9994
2 25157 108.0060 113.6660 0027633 19.3153 340.9104 15.80694801523556
Epoch: May 29, 2026 • Age: 16 hours

当前状态

高度 360.1 km
速度 7.68 km/s
星下点 -41.95°S, 42.85°W
发射日期 Feb 10, 1998
运行时间 28.2 years
类型 other

技术详情

分类 Payload
质量 365.00 kg
干质量 300.00 kg
总质量 365.00 kg
长度 2.70 m
直径 1.00 m
跨度 2.70 m
形状 Cyl + Dish + Pan
制造商 BALL
平台类型 BCP-2000/Tchstar
阶段状态 In Orbit
所有者/国家 USN/US

Most Searched